Date_and_time,latitude,longitude,wind_speed,RelWindDirFrom,WindDirFrom,air_pressure,air_temperature,relative_humidity,Temp,platform_speed_wrt_ground,air_pressure_at_mean_sea_level,platform_orientation
2019-03-18 23:40,50.6304416666667,-96.98077,6.4,7.2,143,990.39,0.1,99,0.90,0.0,1018.18,360.0
2019-03-18 23:50,50.6304416666667,-96.98077,4.4,6.4,146,990.45,-0.2,99,0.90,0.0,1018.29,360.0
2019-03-19 00:00,50.6304416666667,-96.9807683333333,1.5,3.4,142,990.50,0.0,99,0.92,0.0,1018.35,90.0
2019-03-19 00:10,50.6304433333333,-96.98077,3.0,4.6,146,990.57,-0.6,99,0.91,0.0,1018.45,90.0
2019-03-19 00:20,50.630445,-96.9807683333333,4.4,6.0,156,990.77,-1.2,100,0.91,0.0,1018.70,90.0
2019-03-19 00:30,50.6304516666667,-96.9807666666667,5.3,5.8,158,990.80,-1.2,100,0.91,0.0,1018.75,90.0
2019-03-19 00:40,50.6304216666667,-96.9807166666667,5.2,5.9,154,990.85,-1.4,100,0.91,0.0,1018.84,90.0
2019-03-19 00:50,50.6304466666667,-96.9807633333333,6.3,6.9,156,990.79,-1.8,100,0.91,0.0,1018.78,90.0
2019-03-19 01:00,50.6304516666667,-96.9807683333333,6.0,6.8,164,990.84,-2.3,100,0.91,0.0,1018.86,360.0
2019-03-19 01:10,50.6304266666667,-96.9807283333333,4.1,6.3,168,990.96,-2.5,100,0.90,0.0,1018.99,360.0
2019-03-19 01:20,50.630455,-96.9807933333333,4.0,4.6,179,991.06,-2.0,100,0.90,0.0,1019.09,360.0
2019-03-19 01:30,50.6304466666667,-96.9807716666667,3.8,4.2,177,991.10,-1.7,100,0.91,0.0,1019.14,360.0
2019-03-19 01:40,50.630445,-96.9807683333333,2.5,3.8,171,991.21,-1.8,100,0.91,0.0,1019.27,360.0
2019-03-19 01:50,50.630445,-96.9807666666667,1.5,2.5,153,991.39,-2.2,100,0.90,0.0,1019.47,360.0
2019-03-19 02:00,50.630445,-96.9807683333333,2.2,2.9,161,991.46,-3.1,100,0.89,0.0,1019.62,38.0
2019-03-19 02:10,50.630445,-96.9807666666667,0.8,1.6,164,991.58,-3.7,100,0.89,0.0,1019.80,38.0
2019-03-19 02:20,50.6304633333333,-96.9807916666667,1.1,3.2,149,991.65,-3.8,100,0.89,0.0,1019.88,38.0
2019-03-19 02:30,50.6304483333333,-96.9807583333333,2.8,3.4,157,991.68,-4.3,100,0.88,0.0,1019.96,38.0
2019-03-19 02:40,50.630445,-96.98076,2.7,3.7,159,991.84,-4.6,100,0.89,0.0,1020.15,38.0
2019-03-19 02:50,50.630455,-96.98078,3.0,3.8,163,991.85,-4.4,100,0.90,0.0,1020.18,38.0
2019-03-19 03:00,50.6304433333333,-96.980765,2.6,3.1,174,991.87,-4.4,100,0.90,0.0,1020.21,0.0
2019-03-19 03:10,50.6304483333333,-96.9807666666667,2.8,3.2,179,991.94,-4.3,100,0.90,0.0,1020.26,0.0
2019-03-19 03:20,50.630455,-96.9807733333333,2.8,3.1,183,991.97,-3.9,100,0.91,0.0,1020.25,0.0
2019-03-19 03:30,50.6304516666667,-96.980775,2.8,3.4,194,991.94,-3.7,100,0.90,0.0,1020.20,0.0
2019-03-19 03:40,50.6304483333333,-96.9807733333333,2.4,2.8,207,991.96,-3.4,100,0.90,0.0,1020.23,0.0
2019-03-19 03:50,50.6304783333333,-96.9807533333333,1.8,2.2,219,992.04,-2.9,101,0.89,0.0,1020.33,0.0
2019-03-19 04:00,50.6304333333333,-96.9807833333333,1.7,2.2,223,991.97,-2.5,101,0.89,0.0,1020.27,207.4
2019-03-19 04:10,50.63044,-96.9807783333333,2.0,2.4,222,992.01,-2.4,101,0.90,0.0,1020.31,207.4
2019-03-19 04:20,50.63043,-96.9807566666667,1.7,2.1,223,992.00,-2.7,101,0.90,0.0,1020.35,207.4
2019-03-19 04:30,50.6304416666667,-96.9807683333333,1.4,2.2,215,992.05,-3.1,101,0.90,0.0,1020.44,207.4
2019-03-19 04:40,50.6304616666667,-96.9808,0.8,1.6,182,992.11,-4.2,100,0.90,0.0,1020.55,207.4
2019-03-19 04:50,50.6304633333333,-96.9807816666667,1.2,2.6,167,992.17,-6.0,100,0.90,0.0,1020.70,207.4
2019-03-19 05:00,50.630445,-96.9807783333333,2.0,3.1,184,992.07,-6.6,100,0.89,0.0,1020.63,270.0
2019-03-19 05:10,50.6304533333333,-96.98077,2.5,3.0,187,992.05,-6.5,101,0.89,0.0,1020.58,270.0
2019-03-19 05:20,50.6304483333333,-96.980775,1.9,2.9,175,992.15,-6.0,101,0.89,0.0,1020.64,270.0
2019-03-19 05:30,50.6304466666667,-96.9807766666667,0.9,1.6,226,992.20,-6.2,101,0.89,0.0,1020.70,270.0
2019-03-19 05:40,50.630445,-96.9807783333333,1.8,2.4,216,992.17,-6.7,100,0.90,0.0,1020.66,270.0
2019-03-19 05:50,50.6304433333333,-96.9807783333333,1.6,1.9,221,992.22,-6.6,100,0.90,0.0,1020.68,270.0
2019-03-19 06:00,50.630435,-96.98078,2.1,2.6,205,992.20,-7.2,100,0.90,0.0,1020.70,248.5
2019-03-19 06:10,50.6304333333333,-96.9807666666667,1.9,2.3,195,992.27,-6.9,100,0.89,0.0,1020.76,248.5
2019-03-19 06:20,50.630435,-96.980755,1.5,2.4,205,992.30,-6.7,100,0.89,0.0,1020.80,248.5
2019-03-19 06:30,50.6304416666667,-96.9807583333333,1.4,1.9,290,992.41,-6.0,100,0.89,0.0,1020.94,248.5
2019-03-19 06:40,50.6304416666667,-96.98076,0.5,1.3,310,992.53,-5.9,100,0.89,0.0,1021.16,248.5
2019-03-19 06:50,50.6304583333333,-96.9807533333333,0.5,2.1,183,992.50,-6.4,100,0.89,0.0,1021.18,248.5
2019-03-19 07:00,50.6304516666667,-96.9807683333333,1.3,2.8,200,992.49,-8.3,100,0.88,0.0,1021.28,27.4
2019-03-19 07:10,50.6304516666667,-96.98077,3.2,4.2,185,992.42,-8.7,100,0.89,0.0,1021.19,27.4
2019-03-19 07:20,50.6304516666667,-96.9807683333333,2.7,4.2,190,992.51,-8.0,100,0.88,0.0,1021.26,27.4
2019-03-19 07:30,50.63047,-96.9808116666667,2.4,2.8,217,992.59,-6.5,100,0.88,0.0,1021.29,27.4
2019-03-19 07:40,50.6304483333333,-96.9807783333333,2.6,3.0,217,992.52,-5.4,101,0.88,0.0,1021.15,27.4
2019-03-19 07:50,50.63045,-96.9807733333333,3.2,4.1,219,992.48,-5.5,101,0.88,0.0,1021.15,27.4
2019-03-19 08:00,50.6304483333333,-96.98077,3.6,4.3,222,992.44,-4.9,101,0.88,0.0,1021.06,66.4
2019-03-19 08:10,50.6304516666667,-96.98077,3.2,3.8,221,992.34,-5.1,101,0.88,0.0,1020.95,66.4
2019-03-19 08:20,50.63045,-96.9807683333333,3.1,3.9,234,992.32,-4.9,101,0.87,0.0,1020.89,66.4
2019-03-19 08:30,50.6304483333333,-96.98077,3.5,4.3,226,992.20,-5.0,101,0.87,0.0,1020.76,66.4
2019-03-19 08:40,50.6304466666667,-96.9807716666667,4.1,4.8,229,992.12,-4.9,101,0.87,0.0,1020.70,66.4
2019-03-19 08:50,50.6304466666667,-96.98076,4.0,4.6,238,992.10,-4.6,101,0.87,0.0,1020.76,66.4
2019-03-19 09:00,50.63045,-96.98077,3.9,4.6,244,992.08,-4.4,101,0.87,0.0,1020.75,31.1
2019-03-19 09:10,50.6304433333333,-96.980765,4.4,5.0,238,992.05,-4.3,101,0.86,0.0,1020.68,31.1
2019-03-19 09:20,50.6304416666667,-96.9807716666667,4.4,4.9,236,991.98,-4.3,101,0.86,0.0,1020.53,31.1
2019-03-19 09:30,50.6304383333333,-96.9807716666667,3.5,4.5,239,992.06,-4.9,101,0.86,0.0,1020.59,31.1
2019-03-19 09:40,50.6304366666667,-96.98077,2.5,3.4,227,992.11,-6.1,100,0.86,0.0,1020.70,31.1
2019-03-19 09:50,50.6304366666667,-96.9807716666667,2.5,3.3,179,992.12,-7.3,100,0.86,0.0,1020.75,31.1
2019-03-19 10:00,50.6304366666667,-96.9807716666667,2.0,2.7,186,992.24,-7.4,100,0.86,0.0,1020.90,360.0
2019-03-19 10:10,50.6304383333333,-96.9807733333333,1.8,2.2,189,992.20,-7.3,100,0.86,0.0,1020.83,360.0
2019-03-19 10:20,50.6304383333333,-96.9807733333333,2.5,3.2,192,992.11,-7.9,100,0.86,0.0,1020.78,360.0
2019-03-19 10:30,50.6304383333333,-96.9807733333333,3.3,3.8,186,991.92,-9.1,100,0.86,0.0,1020.64,360.0
2019-03-19 10:40,50.6304383333333,-96.9807733333333,3.5,4.1,187,991.81,-8.9,100,0.86,0.0,1020.50,360.0
2019-03-19 10:50,50.6304383333333,-96.9807716666667,3.5,4.6,206,991.70,-8.3,100,0.86,0.0,1020.34,360.0
2019-03-19 11:00,50.6304383333333,-96.9807716666667,3.3,4.1,209,991.71,-7.8,100,0.86,0.0,1020.32,228.3
2019-03-19 11:10,50.6304383333333,-96.9807716666667,3.9,4.8,216,991.67,-8.0,100,0.85,0.0,1020.29,228.3
2019-03-19 11:20,50.6304383333333,-96.9807716666667,4.5,5.3,220,991.64,-7.8,100,0.85,0.0,1020.29,228.3
2019-03-19 11:30,50.6304366666667,-96.9807716666667,4.7,5.8,231,991.62,-6.3,100,0.85,0.0,1020.24,228.3
2019-03-19 11:40,50.6304366666667,-96.9807716666667,5.1,6.1,223,991.52,-5.1,101,0.85,0.0,1020.14,228.3
2019-03-19 11:50,50.63044,-96.9807533333333,5.0,5.8,214,991.41,-5.3,101,0.85,0.0,1020.04,228.3
2019-03-19 12:00,50.630435,-96.9807633333333,4.9,5.8,204,991.32,-6.3,101,0.85,0.0,1020.01,360.0
2019-03-19 12:10,50.630435,-96.9807683333333,4.3,5.5,204,991.34,-7.4,100,0.85,0.0,1020.12,360.0
2019-03-19 12:20,50.630435,-96.9807683333333,4.9,6.2,229,991.56,-6.4,100,0.85,0.0,1020.36,360.0
2019-03-19 12:30,50.630435,-96.9807666666667,5.2,6.1,223,991.62,-5.2,101,0.85,0.0,1020.34,360.0
2019-03-19 12:40,50.6304366666667,-96.9807666666667,5.5,6.5,220,991.58,-5.4,101,0.85,0.0,1020.28,360.0
2019-03-19 12:50,50.6304383333333,-96.9807666666667,6.1,7.2,223,991.58,-5.4,101,0.85,0.0,1020.26,360.0
2019-03-19 13:00,50.6304383333333,-96.9807666666667,5.9,7.6,220,991.49,-5.2,101,0.85,0.0,1020.16,12.6
2019-03-19 13:10,50.63044,-96.980765,5.3,7.1,227,991.62,-5.1,101,0.85,0.0,1020.27,12.6
2019-03-19 13:20,50.63044,-96.980765,5.0,6.5,228,991.73,-4.7,101,0.85,0.0,1020.28,12.6
2019-03-19 13:30,50.63044,-96.980765,5.4,7.4,228,991.75,-4.7,101,0.85,0.0,1020.24,12.6
2019-03-19 13:40,50.6304416666667,-96.980765,5.9,8.3,222,991.53,-4.6,100,0.85,0.0,1020.01,12.6
2019-03-19 13:50,50.63045,-96.9807633333333,5.3,6.8,216,991.38,-4.6,100,0.85,0.0,1019.92,12.6
2019-03-19 14:00,50.6304466666667,-96.98076,6.0,8.5,220,991.30,-4.3,100,0.84,0.0,1019.88,60.8
2019-03-19 14:10,50.630445,-96.9807616666667,5.9,7.6,220,991.14,-4.0,100,0.84,0.0,1019.65,60.8
2019-03-19 14:20,50.6304416666667,-96.9807616666667,6.1,7.8,226,991.15,-3.8,100,0.84,0.0,1019.58,60.8
2019-03-19 14:30,50.63044,-96.9807633333333,6.7,8.9,223,990.94,-3.4,100,0.83,0.0,1019.36,60.8
2019-03-19 14:40,50.63044,-96.980765,7.5,9.6,222,990.78,-2.7,100,0.83,0.0,1019.15,60.8
2019-03-19 14:50,50.6304383333333,-96.980765,6.2,9.3,220,990.76,-2.4,100,0.83,0.0,1019.11,60.8
2019-03-19 15:00,50.6304383333333,-96.980765,7.7,9.6,217,990.65,-1.9,99,0.84,0.0,1018.96,360.0
2019-03-19 15:10,50.6304366666667,-96.9807666666667,6.8,8.8,216,990.47,-1.4,99,0.83,0.0,1018.73,360.0
2019-03-19 15:20,50.6304366666667,-96.9807666666667,7.3,9.3,211,990.29,-0.9,99,0.83,0.0,1018.51,360.0
2019-03-19 15:30,50.6304366666667,-96.9807666666667,6.6,9.1,219,990.24,-0.4,98,0.83,0.0,1018.43,360.0
2019-03-19 15:40,50.6304383333333,-96.9807666666667,8.2,10.7,218,990.18,0.0,94,0.83,0.0,1018.34,360.0
2019-03-19 15:50,50.6304383333333,-96.9807683333333,8.6,11.3,218,990.05,0.5,90,0.83,0.0,1018.17,360.0
2019-03-19 16:00,50.6304433333333,-96.9807766666667,8.0,10.1,216,989.97,0.9,88,0.82,0.0,1018.06,270.0
2019-03-19 16:10,50.63044,-96.980775,7.2,9.9,204,989.73,1.4,85,0.82,0.0,1017.77,270.0
2019-03-19 16:20,50.6304383333333,-96.9807766666667,5.9,7.9,186,989.58,1.6,83,0.83,0.0,1017.58,270.0
2019-03-19 16:30,50.6304383333333,-96.9807766666667,8.2,10.4,175,989.26,1.2,84,0.83,0.0,1017.24,270.0
2019-03-19 16:40,50.6304383333333,-96.9807766666667,9.3,10.2,178,988.99,0.6,87,0.83,0.0,1016.98,270.0
2019-03-19 16:50,50.6304383333333,-96.9807766666667,9.1,10.9,184,988.79,0.8,87,0.83,0.0,1016.74,270.0
2019-03-19 17:00,50.6304383333333,-96.980775,8.3,10.3,188,988.67,1.1,86,0.83,0.0,1016.57,240.8
2019-03-19 17:10,50.6304383333333,-96.9807733333333,8.2,10.1,184,988.42,1.1,86,0.83,0.0,1016.29,240.8
2019-03-19 17:20,50.6304383333333,-96.9807716666667,9.2,11.3,184,988.21,1.4,85,0.83,0.0,1016.03,240.8
2019-03-19 17:30,50.6304383333333,-96.9807716666667,10.8,13.6,181,987.91,1.7,85,0.83,0.0,1015.69,240.8
2019-03-19 17:40,50.630425,-96.9807616666667,11.6,13.3,179,987.70,1.5,85,0.83,0.0,1015.46,240.8
2019-03-19 17:50,50.6304316666667,-96.9807616666667,12.3,15.0,181,987.65,1.3,87,0.83,0.0,1015.40,240.8
2019-03-19 18:00,50.6304316666667,-96.9807683333333,11.1,14.2,183,987.52,1.1,90,0.83,0.0,1015.25,360.0
2019-03-19 18:10,50.6304416666667,-96.9807666666667,8.6,11.0,186,987.49,1.3,90,0.84,0.0,1015.19,360.0
2019-03-19 18:20,50.6304416666667,-96.9807616666667,8.6,11.6,205,987.52,2.3,82,0.84,0.0,1015.19,360.0
2019-03-19 18:30,50.6304433333333,-96.980765,8.6,11.8,204,987.40,3.2,76,0.85,0.0,1015.06,360.0
2019-03-19 18:40,50.6304433333333,-96.980765,8.7,11.7,202,987.28,3.9,71,0.85,0.0,1014.88,360.0
2019-03-19 18:50,50.630445,-96.980765,8.5,12.0,198,987.12,4.1,70,0.85,0.0,1014.70,360.0
2019-03-19 19:00,50.630445,-96.980765,8.8,12.9,189,986.88,3.9,73,0.86,0.0,1014.46,90.0
2019-03-19 19:10,50.6304466666667,-96.9807666666667,10.9,13.2,186,986.52,3.6,74,0.86,0.0,1014.09,90.0
2019-03-19 19:20,50.6304483333333,-96.9807683333333,10.7,14.1,189,986.33,3.4,76,0.86,0.0,1013.89,90.0
2019-03-19 19:30,50.6304483333333,-96.9807683333333,11.3,13.7,185,986.08,3.3,77,0.86,0.0,1013.65,90.0
2019-03-19 19:40,50.6304583333333,-96.98077,11.9,14.5,184,985.84,3.0,80,0.86,0.0,1013.42,90.0
2019-03-19 19:50,50.6304483333333,-96.98076,11.3,14.9,190,985.71,3.2,79,0.87,0.0,1013.30,90.0
2019-03-19 20:00,50.63046,-96.9807716666667,11.0,14.4,198,985.50,3.9,72,0.87,0.0,1013.03,18.9
2019-03-19 20:10,50.63045,-96.980765,12.0,15.0,199,985.26,4.5,68,0.88,0.0,1012.70,18.9
2019-03-19 20:20,50.6304483333333,-96.9807616666667,11.7,15.9,204,985.14,5.0,64,0.89,0.0,1012.51,18.9
2019-03-19 20:30,50.6304466666667,-96.98076,14.0,20.2,207,984.97,5.3,60,0.89,0.0,1012.29,18.9
2019-03-19 20:40,50.6304466666667,-96.9807616666667,12.5,17.4,205,984.80,5.4,59,0.89,0.0,1012.10,18.9
2019-03-19 20:50,50.6304466666667,-96.9807666666667,14.3,20.6,206,984.68,5.4,59,0.89,0.0,1011.99,18.9
2019-03-19 21:00,50.6304416666667,-96.9807683333333,14.4,20.3,206,984.37,5.5,58,0.89,0.0,1011.68,38.0
2019-03-19 21:10,50.63044,-96.98077,15.1,20.9,209,984.14,5.6,57,0.90,0.0,1011.44,38.0
2019-03-19 21:20,50.63044,-96.9807716666667,16.5,22.5,206,983.85,5.5,58,0.90,0.0,1011.15,38.0
2019-03-19 21:30,50.6304383333333,-96.9807716666667,15.3,20.9,210,983.89,5.2,59,0.90,0.0,1011.23,38.0
2019-03-19 21:40,50.6304216666667,-96.9807766666667,12.9,17.7,212,983.96,5.5,58,0.90,0.0,1011.27,38.0
2019-03-19 21:50,50.630435,-96.98078,12.5,17.7,214,983.80,5.1,60,0.90,0.0,1011.09,38.0
2019-03-19 22:00,50.6304316666667,-96.98078,12.8,18.1,213,983.59,5.3,59,0.90,0.0,1010.83,235.2
2019-03-19 22:10,50.6304316666667,-96.9807766666667,13.3,17.0,214,983.33,5.6,57,0.90,0.0,1010.53,235.2
2019-03-19 22:20,50.6304316666667,-96.9807733333333,13.2,17.6,217,983.20,5.6,58,0.91,0.0,1010.39,235.2
2019-03-19 22:30,50.6304016666667,-96.9807833333333,13.0,16.6,217,983.01,5.7,57,0.91,0.0,1010.18,235.2
2019-03-19 22:40,50.630435,-96.980765,12.3,16.1,220,982.93,5.8,57,0.91,0.0,1010.09,235.2
2019-03-19 22:50,50.6304333333333,-96.9807633333333,11.9,16.1,223,982.79,5.8,57,0.91,0.0,1009.94,235.2
2019-03-19 23:00,50.6304316666667,-96.98076,12.6,16.4,224,982.77,5.8,57,0.91,0.0,1009.91,159.9
2019-03-19 23:10,50.63043,-96.9807616666667,13.3,17.5,224,982.65,5.8,58,0.91,0.0,1009.80,159.9
2019-03-19 23:20,50.6304266666667,-96.98077,11.7,16.0,224,982.62,5.7,59,0.92,0.0,1009.78,159.9
2019-03-19 23:30,50.6304316666667,-96.9807583333333,10.9,14.5,228,982.50,5.7,59,0.92,0.0,1009.65,159.9
2019-03-19 23:40,50.6304333333333,-96.9807583333333,11.9,16.5,227,982.41,5.7,59,0.92,0.0,1009.57,159.9
2019-03-19 23:50,50.630435,-96.98076,11.1,15.3,234,982.41,5.5,60,0.92,0.0,1009.57,159.9
